Location: Taipo
(41.0000°S, 175.9500°E)
Time: 03:27:14
(UTC+00:00)

Meteor 2-20 - Pass Details

Date: 18 April 2024
Orbit: 939 x 958 km, 82.5° (Epoch: 22 May)

Event Time Altitude Azimuth Distance (km) Brightness Sun altitude
Rises 18:01:22 0° 349° (N) 3,615 7.4 -9.9°
Reaches altitude 10° 18:03:50 10° 348° (NNW) 2,680 6.8 -9.5°
Maximum altitude 18:09:59 76° 262° (W) 996 4.5 -8.3°
Drops below altitude 10° 18:16:14 10° 175° (S) 2,722 6.8 -7.2°
Sets 18:18:46 0° 173° (S) 3,676 7.5 -6.7°
